| time (UTC) | temp C | wind direction | speed KPH | gust KPH | rain 1hr cm | rain 24hr cm | rain mn cm | humidity % | barometer mb |
| 20260507174125 | 12 | 126 | 12.9 | 16.1 | 0.00 | 2.49 | 0.69 | 71 | 1006.9 |
| 20260507173125 | 12 | 135 | 16.1 | 19.3 | 0.00 | 2.49 | 0.69 | 70 | 1006.8 |
| 20260507172222 | 12 | 135 | 16.1 | 17.7 | 0.00 | 2.49 | 0.69 | 70 | 1006.9 |
| 20260507171222 | 11 | 135 | 16.1 | 17.7 | 0.00 | 2.49 | 0.69 | 71 | 1007.0 |
| 20260507170224 | 11 | 135 | 14.5 | 16.1 | 0.00 | 2.49 | 0.69 | 71 | 1007.0 |
| 20260507165225 | 11 | 135 | 16.1 | 17.7 | 0.00 | 2.49 | 0.69 | 70 | 1007.1 |
| 20260507164323 | 11 | 135 | 14.5 | 16.1 | 0.00 | 2.49 | 0.69 | 70 | 1007.2 |
| 20260507163323 | 11 | 135 | 12.9 | 14.5 | 0.00 | 2.49 | 0.69 | 70 | 1007.3 |
| 20260507161424 | 12 | 135 | 12.9 | 14.5 | 0.00 | 2.49 | 0.69 | 64 | 1007.5 |
| 20260507160522 | 12 | 135 | 6.4 | 8.0 | 0.00 | 2.49 | 0.69 | 60 | 1007.5 |
| 20260507155524 | 12 | 135 | 4.8 | 6.4 | 0.00 | 2.49 | 0.69 | 63 | 1007.6 |
| 20260507151725 | 11 | 135 | 9.7 | 11.3 | 0.00 | 2.49 | 0.69 | 69 | 1008.1 |
| 20260507145825 | 11 | 135 | 8.0 | 8.0 | 0.00 | 2.49 | 0.69 | 68 | 1008.1 |
| 20260507143825 | 11 | 180 | 6.4 | 6.4 | 0.00 | 2.49 | 0.69 | 69 | 1008.4 |
| 20260507142825 | 11 | 180 | 4.8 | 4.8 | 0.00 | 2.49 | 0.69 | 69 | 1008.5 |
| 20260507141824 | 11 | 180 | 3.2 | 4.8 | 0.00 | 2.49 | 0.69 | 70 | 1008.6 |
| 20260507140823 | 11 | 202 | 4.8 | 4.8 | 0.00 | 2.49 | 0.69 | 71 | 1008.6 |
| 20260507135824 | 10 | 225 | 4.8 | 4.8 | 0.00 | 2.49 | 0.69 | 71 | 1008.7 |
| 20260507134922 | 10 | 231 | 8.0 | 9.7 | 0.00 | 2.49 | 0.69 | 72 | 1008.6 |
| 20260507132023 | 10 | 246 | 8.0 | 9.7 | 0.00 | 2.49 | 0.69 | 76 | 1009.2 |
| 20260507131025 | 10 | 270 | 8.0 | 11.3 | 0.00 | 2.49 | 0.69 | 77 | 1008.7 |
| 20260507130124 | 9 | 238 | 8.0 | 11.3 | 0.00 | 2.49 | 0.69 | 77 | 1008.9 |
| 20260507125222 | 9 | 233 | 9.7 | 11.3 | 0.00 | 2.49 | 0.69 | 77 | 1008.9 |
| 20260507123223 | 8 | 248 | 11.3 | 14.5 | 0.00 | 2.49 | 0.69 | 80 | 1008.4 |
| 20260507122223 | 8 | 257 | 11.3 | 14.5 | 0.00 | 2.49 | 0.69 | 80 | 1008.4 |
| 20260507121222 | 8 | 247 | 9.7 | 11.3 | 0.00 | 2.49 | 0.69 | 79 | 1008.5 |
| 20260507120322 | 8 | 358 | 1.6 | 4.8 | 0.00 | 2.49 | 0.69 | 80 | 1008.0 |
| 20260507114323 | 8 | 247 | 11.3 | 14.5 | 0.00 | 2.49 | 0.69 | 81 | 1008.6 |
| 20260507113324 | 8 | 225 | 11.3 | 12.9 | 0.00 | 2.49 | 0.69 | 79 | 1009.4 |
| 20260507112324 | 8 | 225 | 8.0 | 9.7 | 0.00 | 2.49 | 0.69 | 81 | 1009.1 |
| 20260507111324 | 8 | 225 | 9.7 | 14.5 | 0.00 | 2.49 | 0.69 | 82 | 1009.5 |
| 20260507110323 | 8 | 237 | 16.1 | 17.7 | 0.00 | 2.49 | 0.69 | 82 | 1009.1 |
| 20260507105324 | 8 | 225 | 16.1 | 17.7 | 0.00 | 2.49 | 0.69 | 81 | 1009.0 |
| 20260507104423 | 8 | 225 | 12.9 | 14.5 | 0.00 | 2.49 | 0.69 | 83 | 1008.9 |
| 20260507102523 | 8 | 247 | 12.9 | 16.1 | 0.00 | 2.49 | 0.69 | 86 | 1008.5 |
| 20260507100523 | 8 | 270 | 9.7 | 12.9 | 0.00 | 2.49 | 0.69 | 87 | 1007.8 |
| 20260507091523 | 8 | 247 | 12.9 | 12.9 | 0.00 | 2.49 | 0.69 | 86 | 1008.0 |
| 20260507090523 | 8 | 247 | 12.9 | 17.7 | 0.00 | 2.49 | 0.69 | 86 | 1008.2 |
| 20260507085523 | 8 | 225 | 22.5 | 25.7 | 0.00 | 2.49 | 0.69 | 86 | 1008.1 |
| 20260507084522 | 8 | 247 | 17.7 | 20.9 | 0.00 | 2.49 | 0.69 | 86 | 1007.6 |
| 20260507083523 | 8 | 270 | 17.7 | 24.1 | 0.00 | 2.49 | 0.69 | 87 | 1007.5 |
| 20260507082525 | 8 | 248 | 16.1 | 19.3 | 0.00 | 2.49 | 0.69 | 87 | 1007.4 |
| 20260507081524 | 8 | 247 | 20.9 | 22.5 | 0.00 | 2.49 | 0.69 | 88 | 1007.3 |
| 20260507080523 | 8 | 225 | 22.5 | 25.7 | 0.03 | 2.49 | 0.69 | 87 | 1007.4 |
| 20260507075523 | 8 | 247 | 20.9 | 22.5 | 0.03 | 2.49 | 0.69 | 88 | 1007.2 |
| 20260507074622 | 8 | 267 | 17.7 | 19.3 | 0.03 | 2.49 | 0.69 | 89 | 1007.2 |
| 20260507072722 | 8 | 247 | 16.1 | 20.9 | 0.03 | 2.49 | 0.69 | 89 | 1007.3 |
| 20260507071723 | 9 | 241 | 19.3 | 20.9 | 0.03 | 2.49 | 0.69 | 89 | 1007.0 |
| 20260507070724 | 9 | 248 | 11.3 | 14.5 | 0.00 | 2.46 | 0.66 | 90 | 1006.8 |
| 20260507064724 | 9 | 225 | 9.7 | 12.9 | 0.58 | 2.46 | 0.66 | 91 | 1007.0 |
| 20260507063822 | 9 | 225 | 12.9 | 14.5 | 0.66 | 2.46 | 0.66 | 91 | 1006.9 |
| 20260507062825 | 9 | 225 | 11.3 | 14.5 | 0.66 | 2.46 | 0.66 | 94 | 1006.7 |
| 20260507061824 | 8 | 225 | 9.7 | 11.3 | 0.66 | 2.46 | 0.66 | 95 | 1006.7 |
| 20260507060922 | 8 | 225 | 8.0 | 9.7 | 0.66 | 2.46 | 0.66 | 95 | 1006.7 |
| 20260507055924 | 8 | 225 | 17.7 | 20.9 | 0.58 | 2.39 | 0.53 | 96 | 1007.1 |
| 20260507054924 | 8 | 135 | 16.1 | 17.7 | 0.18 | 1.98 | 0.13 | 96 | 1007.3 |
| 20260507053924 | 8 | 135 | 16.1 | 17.7 | 0.00 | 1.80 | 0.00 | 96 | 1006.6 |
| 20260507052925 | 8 | 133 | 14.5 | 19.3 | 0.00 | 1.80 | 0.00 | 96 | 1006.6 |
| 20260507051026 | 8 | 153 | 9.7 | 12.9 | 0.00 | 1.80 | 0.00 | 96 | 1007.1 |
| 20260507050924 | 8 | 148 | 14.5 | 16.1 | 0.00 | 1.80 | 0.00 | 96 | 1007.1 |
| 20260507050023 | 8 | 135 | 14.5 | 17.7 | 0.00 | 1.80 | 0.00 | 96 | 1007.1 |
| 20260507044122 | 8 | 127 | 20.9 | 22.5 | 0.00 | 1.80 | 0.00 | 96 | 1006.9 |
| 20260507043123 | 8 | 117 | 17.7 | 22.5 | 0.00 | 1.80 | 0.00 | 95 | 1006.8 |
| 20260507040124 | 8 | 132 | 29.0 | 35.4 | 0.03 | 1.80 | 0.00 | 95 | 1007.4 |
| 20260507035217 | 8 | 129 | 22.5 | 29.0 | 0.05 | 1.80 | 1.80 | 95 | 1007.3 |
| 20260507034215 | 8 | 135 | 24.1 | 29.0 | 0.08 | 1.80 | 1.80 | 94 | 1007.5 |
| 20260507033216 | 8 | 124 | 24.1 | 29.0 | 0.13 | 1.80 | 1.80 | 94 | 1007.4 |
| 20260507031315 | 9 | 127 | 35.4 | 43.5 | 0.28 | 1.80 | 1.80 | 94 | 1007.7 |
| 20260507030315 | 9 | 127 | 32.2 | 37.0 | 0.33 | 1.78 | 1.78 | 94 | 1007.8 |
| 20260507025314 | 10 | 133 | 27.4 | 32.2 | 0.48 | 1.75 | 1.75 | 94 | 1007.9 |
| 20260507023316 | 10 | 106 | 33.8 | 41.8 | 0.56 | 1.68 | 1.68 | 94 | 1008.1 |
| 20260507022316 | 10 | 91 | 30.6 | 38.6 | 0.56 | 1.60 | 1.57 | 94 | 1008.4 |
| 20260507021316 | 10 | 91 | 30.6 | 35.4 | 0.56 | 1.52 | 1.52 | 93 | 1008.4 |
| 20260507020415 | 10 | 95 | 29.0 | 38.6 | 0.51 | 1.45 | 1.45 | 94 | 1008.7 |
| 20260507015415 | 10 | 90 | 33.8 | 40.2 | 0.43 | 1.30 | 1.27 | 93 | 1008.7 |
| 20260507013515 | 10 | 90 | 29.0 | 38.6 | 0.33 | 1.12 | 1.12 | 92 | 1009.2 |
| 20260507012515 | 10 | 90 | 29.0 | 33.8 | 0.38 | 1.04 | 1.04 | 93 | 1009.5 |
| 20260507011514 | 10 | 90 | 30.6 | 35.4 | 0.46 | 0.99 | 0.99 | 93 | 1009.8 |
| 20260507010515 | 10 | 105 | 33.8 | 38.6 | 0.53 | 0.94 | 0.94 | 93 | 1009.9 |
| 20260507005516 | 10 | 94 | 24.1 | 29.0 | 0.61 | 0.86 | 0.86 | 93 | 1010.0 |
| 20260507003614 | 10 | 92 | 20.9 | 25.7 | 0.58 | 0.79 | 0.79 | 91 | 1010.3 |
| 20260507002616 | 10 | 106 | 30.6 | 37.0 | 0.48 | 0.66 | 0.66 | 91 | 1010.2 |
| 20260507001615 | 10 | 99 | 29.0 | 37.0 | 0.38 | 0.56 | 0.53 | 92 | 1010.6 |
| 20260506235615 | 10 | 104 | 32.2 | 40.2 | 0.10 | 0.25 | 0.25 | 89 | 1010.7 |
| 20260506234615 | 10 | 108 | 27.4 | 33.8 | 0.08 | 0.23 | 0.23 | 90 | 1011.1 |
| 20260506233616 | 10 | 113 | 29.0 | 33.8 | 0.08 | 0.20 | 0.20 | 90 | 1010.7 |
| 20260506232617 | 10 | 111 | 30.6 | 38.6 | 0.08 | 0.18 | 0.18 | 89 | 1010.8 |
| 20260506231615 | 10 | 92 | 24.1 | 30.6 | 0.10 | 0.18 | 0.18 | 91 | 1011.0 |
| 20260506230615 | 10 | 92 | 25.7 | 29.0 | 0.13 | 0.18 | 0.18 | 90 | 1010.6 |
| 20260506225714 | 10 | 90 | 27.4 | 37.0 | 0.13 | 0.15 | 0.15 | 91 | 1010.5 |
| 20260506224715 | 10 | 90 | 25.7 | 32.2 | 0.13 | 0.15 | 0.15 | 90 | 1010.9 |
| 20260506222714 | 10 | 90 | 29.0 | 35.4 | 0.10 | 0.10 | 0.10 | 91 | 1011.2 |
| 20260506221716 | 10 | 96 | 30.6 | 37.0 | 0.08 | 0.08 | 0.08 | 91 | 1011.3 |
| 20260506220815 | 10 | 92 | 29.0 | 37.0 | 0.05 | 0.05 | 0.05 | 90 | 1011.8 |
| 20260506215816 | 10 | 98 | 27.4 | 33.8 | 0.03 | 0.03 | 0.03 | 90 | 1012.1 |
| 20260506211816 | 9 | 90 | 20.9 | 22.5 | 0.00 | 0.00 | 0.00 | 89 | 1011.8 |
| 20260506210815 | 9 | 102 | 25.7 | 30.6 | 0.00 | 0.00 | 0.00 | 89 | 1012.3 |
| 20260506205815 | 9 | 90 | 29.0 | 35.4 | 0.00 | 0.00 | 0.00 | 88 | 1012.3 |
| 20260506204815 | 10 | 101 | 32.2 | 38.6 | 0.00 | 0.00 | 0.00 | 88 | 1012.6 |
| 20260506202915 | 10 | 128 | 29.0 | 35.4 | 0.00 | 0.00 | 0.00 | 87 | 1012.1 |
| 20260506200916 | 10 | 113 | 30.6 | 33.8 | 0.00 | 0.00 | 0.00 | 86 | 1012.4 |
| 20260506195916 | 10 | 94 | 35.4 | 45.1 | 0.00 | 0.00 | 0.00 | 87 | 1011.7 |
| 20260506194915 | 10 | 95 | 32.2 | 38.6 | 0.00 | 0.00 | 0.00 | 86 | 1011.9 |
| 20260506193915 | 10 | 97 | 32.2 | 38.6 | 0.00 | 0.00 | 0.00 | 86 | 1011.9 |
| 20260506192916 | 10 | 93 | 32.2 | 38.6 | 0.00 | 0.00 | 0.00 | 85 | 1011.9 |
| 20260506191918 | 10 | 90 | 33.8 | 38.6 | 0.00 | 0.00 | 0.00 | 84 | 1012.2 |
| 20260506185915 | 10 | 92 | 30.6 | 35.4 | 0.00 | 0.00 | 0.00 | 86 | 1012.4 |
| 20260506184915 | 10 | 92 | 27.4 | 37.0 | 0.00 | 0.00 | 0.00 | 86 | 1012.4 |
| 20260506181915 | 10 | 90 | 32.2 | 41.8 | 0.00 | 0.00 | 0.00 | 86 | 1012.7 |
| 20260506180915 | 10 | 90 | 24.1 | 29.0 | 0.00 | 0.00 | 0.00 | 87 | 1013.0 |
| 20260506175917 | 10 | 90 | 27.4 | 33.8 | 0.00 | 0.00 | 0.00 | 86 | 1012.9 |
| 20260506174916 | 10 | 90 | 24.1 | 32.2 | 0.00 | 0.00 | 0.00 | 87 | 1013.0 |